#timestamp,LO_Frequency,Hit,StdDev 
1667080815.3,286047003.9,N
1667080835.2,286047003.1,N
1667080855.0,286047003.6,N
1667080855.9,286047003.6,N
1667080875.8,286047003.9,N
1667080895.6,286047003.9,N
1667080915.4,286047003.5,N
1667080935.3,286047003.0,N
1667080955.1,286047005.9,Y
1667080975.9,286047002.1,P
1667080995.7,286046999.8,P
1667081015.5,286047000.5,N
1667081035.4,286046998.6,N
1667081055.2,286046998.3,N
1667081075.0,286047000.5,N
1667081075.9,286047000.5,N
1667081095.8,286047000.2,N
1667081115.6,286047000.4,N
1667081135.5,286047000.6,N
1667081155.3,286047002.7,N
1667081175.1,286047001.1,N
1667081195.9,286047002.6,N
1667081215.7,286047002.4,N
1667081235.6,286047001.8,N
1667081255.4,286047001.5,N
1667081275.2,286047004.2,Y
1667081295.1,286047002.0,P
1667081296.0,286047002.0,P
1667081315.8,286047003.9,P
1667081335.9,286047001.5,N
1667081355.7,286047001.5,N
1667081375.6,286047002.1,N
1667081395.4,286046999.8,N
1667081415.2,286047000.0,N
1667081435.1,286047002.8,N
1667081436.0,286047002.8,N
1667081455.8,286047002.6,N
1667081475.7,286047000.2,N
1667081495.5,286047001.0,N
1667081515.3,286046999.7,N
1667081535.2,286047000.6,N
1667081555.0,286047000.3,N
1667081555.9,286047000.3,N
1667081575.7,286047000.0,N
1667081595.6,286047002.7,N
1667081615.4,286047000.1,N
1667081635.3,286047000.0,N
1667081655.1,286046999.9,N
1667081675.8,286047000.4,N
1667081695.7,286046998.9,N
1667081715.5,286046998.7,N
1667081735.3,286047001.1,N
1667081755.2,286047001.1,N
1667081805.1,286047000.7,E
1667081815.9,286046998.7,N
1667081835.7,286046998.4,P
1667081855.8,286047000.2,N
1667081875.6,286047000.1,N
1667081895.5,286047001.5,N
1667081915.3,286047001.9,N
1667081935.1,286047002.1,N
1667081955.9,286047002.7,N
1667081975.7,286047003.8,N
1667081995.6,286047002.2,N
1667082015.4,286046999.5,N
1667082035.2,286046998.4,N
1667082055.1,286047000.7,N
1667082056.0,286047000.7,N
1667082075.8,286047002.7,N
1667082095.7,286047002.5,N
1667082115.5,286047001.3,N
1667082135.3,286047003.7,N
1667082155.2,286047004.3,N
1667082175.9,286047004.1,N
1667082195.7,286047001.6,N
1667082215.6,286047001.4,N
1667082235.4,286046999.7,N
1667082255.2,286047000.9,N
1667082275.1,286046998.5,N
1667082276.0,286046998.5,N
1667082295.8,286046999.4,N
1667082315.7,286046996.5,N
1667082335.5,286046998.8,N
1667082355.3,286047000.8,N
1667082375.2,286047000.3,N
1667082395.0,286047002.8,N
1667082395.9,286047002.8,N
1667082415.8,286047002.2,N
1667082435.6,286047001.9,N
1667082455.4,286046999.7,N
1667082475.3,286047002.6,N
1667082495.1,286047000.7,N
1667082515.9,286047000.4,N
1667082535.7,286046999.9,N
1667082555.5,286047001.1,N
1667082575.4,286047000.2,N
1667082595.2,286046998.2,N
1667082615.0,286047000.6,N
1667082615.9,286047000.6,N
1667082635.8,286047000.0,N
1667082655.6,286047000.3,N
1667082675.5,286047000.4,N
1667082695.3,286047002.7,N
1667082715.1,286047001.5,N
1667082735.9,286047003.8,N
1667082755.7,286047003.4,N
1667082775.5,286047003.2,N
1667082795.4,286047003.8,N
1667082815.2,286047004.4,N
1667082835.1,286047003.7,N
1667082836.0,286047003.7,N
1667082855.8,286047001.4,N
1667082875.6,286047002.4,N
1667082895.5,286047000.1,N
1667082915.3,286047001.5,N
1667082935.1,286047002.4,N
1667082955.9,286047001.8,N
1667082975.7,286047004.3,N
1667082995.6,286047004.2,N
1667083015.4,286047003.0,N
1667083035.2,286047004.1,N
1667083055.1,286047002.9,N
1667083056.0,286047002.9,N
1667083075.8,286047001.7,N
1667083095.6,286047001.9,N
1667083115.5,286047001.3,N
1667083135.3,286047004.4,N
1667083155.2,286047002.4,N
1667083175.9,286047002.7,N
1667083195.7,286046998.6,N
1667083215.6,286047001.0,N
1667083235.4,286047002.7,N
1667083255.2,286047003.8,N
1667083275.1,286047001.4,N
1667083276.0,286047001.4,N
1667083295.8,286047004.3,Y
1667083315.7,286047002.3,P
1667083335.5,286047002.8,P
1667083355.3,286046999.8,N
1667083375.2,286047002.2,N
1667083395.0,286047002.8,N
1667083395.9,286047002.8,N
1667083415.8,286047000.8,N
1667083435.6,286046999.9,N
1667083455.4,286047000.8,N
1667083475.3,286046998.4,N
1667083495.1,286047001.2,N
1667083515.8,286046998.6,N
1667083535.7,286047000.1,N
1667083555.5,286047002.5,N
1667083575.4,286046999.8,N
1667083595.2,286047000.5,N
1667083615.0,286046999.9,N
1667083615.9,286046999.9,N
1667083635.8,286047002.4,N
1667083655.6,286047001.1,N
1667083675.4,286046998.5,N
1667083695.3,286046999.9,N
1667083715.1,286047000.4,N
1667083735.9,286047000.0,N
1667083755.7,286047000.0,N
1667083775.5,286047000.1,N
1667083795.4,286047000.7,N
1667083815.2,286046998.3,N
1667083835.0,286047000.9,N
1667083835.9,286047000.9,N
1667083855.8,286047000.1,N
1667083875.6,286046999.7,N
1667083895.5,286047004.1,Y
1667083915.3,286047001.3,P
1667083935.1,286047001.7,P
1667083955.9,286047002.1,P
1667083975.7,286047002.0,Y
1667083995.6,286047000.7,P
1667084015.4,286046998.4,P
1667084035.2,286047000.7,N
1667084055.1,286046998.1,N
1667084056.0,286046998.1,N
1667084075.8,286047000.2,N
1667084095.6,286046998.7,N
1667084115.5,286047001.2,N
1667084135.3,286046999.6,N
1667084155.2,286046998.2,N
1667084175.9,286046998.6,N
1667084195.7,286046998.8,N
1667084215.6,286046998.8,N
1667084235.4,286046996.7,N
1667084255.3,286046998.1,N
1667084275.1,286047001.2,N
1667084276.0,286047001.2,N
1667084295.8,286047001.2,N
1667084315.7,286046997.1,N
1667084335.5,286046996.8,N
1667084355.3,286046997.6,N
1667084375.2,286046995.3,Y
1667084395.0,286046996.9,P
1667084395.9,286046996.9,N
